weather.gov     
National Weather Service

Terminal Aerodrome Forecast
NWS Homepage
This page is being discontinued on March 12, 2014.
The same data is available at this site. Please update your bookmarks.
Thank you, and we apologize for the inconvenience.
Please send an email to SR-SRH.Webmaster@noaa.gov with any concerns.


Current Version
Previous Version:    01  02  03  04  05  06  07  08  09  10  11  12  13  14  15  16  17  18  19  20  21  22  23  24  25  26  27  28  29  30  
   31  32  33  34  35  36  37  
[Printable]
995
FTUS42 KMLB 200700 AAA
TAFMLB
TAF AMD
KMLB 200715Z 2007/2106 04009KT P6SM -RA FEW012 BKN040
     FM201400 23005KT P6SM VCSH BKN030 OVC050
     FM201800 28007KT P6SM VCSH SCT030 OVC050
      TEMPO 2018/2021 3SM TSRA BKN025CB
     FM210000 25004KT P6SM SCT020 BKN040 BKN080=


U.S. Dept. of Commerce
NOAA National Weather Service
1325 East West Highway
Silver Spring, MD 20910
E-mail: w-nws.webmaster@noaa.gov
Page last modified: May 16, 2007
NATIONAL WEATHER SERVICE: for Safety, for Work, for Fun - FOR LIFE